Hourly Weather Roundup
Issued by NWS Central Illinois

Home | Current Version | Previous Version | Text Only | Print | Product List | Glossary On
Versions: 1 2 3 4 5 6 7 8 9 10 11 12 13 14 15 16 17 18 19 20 21 22 23 24 25 26 27 28 29 30 31 32 33 34 35 36 37 38 39 40 41 42 43 44 45 46 47 48 49 50
415
NZUS43 KILX 290510
HWRILX

AREA WEATHER ROUNDUP
NATIONAL WEATHER SERVICE, LINCOLN IL
1200 AM CDT FRI APR 29 2016


CITY           SKY/WX    TMP DP  RH WIND       PRES   REMARKS
BLOOMINGTON    CLOUDY    55  49  80 W5        30.01S
CHAMPAIGN      CLEAR     50  47  89 NW6       30.00S
DANVILLE       CLEAR     52  49  90 NW6       29.98R
DECATUR        CLEAR     55  47  74 NW6       30.00S
EFFINGHAM      CLEAR     56  51  82 CALM      30.02S
FLORA          CLEAR     58  52  80 NW5       30.01S
GALESBURG      CLOUDY    53  49  87 W3        30.02R
JACKSONVILLE   CLEAR     53  48  83 W7        30.02S
LACON          CLOUDY    50  48  93 CALM      30.00S FOG
LAWRENCEVILLE  CLEAR     59  51  75 N10       30.00R
LITCHFIELD     CLEAR     52  47  83 NW3       30.02S
$$


CITY           SKY/WX    TMP DP  RH WIND       PRES   REMARKS
LINCOLN        CLOUDY    58  50  76 CALM      30.00F
MACOMB         CLOUDY    53  49  87 W7        30.04S
MATTOON        MOCLDY    53  48  83 NW5       30.00S
MT CARMEL AP   NOT AVBL
OLNEY-NOBLE AP CLEAR     57  52  82 N5        30.01S
PARIS          PTCLDY    51  48  89 NW3       30.01S
PEORIA         CLOUDY    55  48  77 CALM      30.01S
PONTIAC        CLOUDY    53  52  97 CALM      30.01S FOG
RANTOUL        CLOUDY    54  50  88 NW3       30.00S
ROBINSON       CLEAR     54  50  84 N5        30.01S
SPRINGFIELD    CLEAR     55  51  86 W6        30.01S
TAYLORVILLE    CLEAR     52  50  93 CALM      30.01S
$$

...REGIONAL REPORTS...


CITY           SKY/WX    TMP DP  RH WIND       PRES   REMARKS
CHICAGO O`HARE CLOUDY    42  41  96 N8        30.00S FOG
KANKAKEE       CLOUDY    48  44  85 N3        30.01R
MOLINE         CLOUDY    52  49  89 CALM      30.01R FOG
MOUNT STERLING MOCLDY    53  49  84 NW6       30.01F
MOUNT VERNON   CLEAR     57  46  67 CALM      30.02S
PITTSFIELD     CLEAR     55  49  79 W5        30.03S
QUINCY         CLOUDY    54  47  77 W6        30.02S
ROCKFORD       CLOUDY    43  40  89 NE7       30.04R
$$


CITY           SKY/WX    TMP DP  RH WIND       PRES   REMARKS
BURLINGTON     CLOUDY    53  48  83 W8        30.01S
CEDAR RAPIDS   CLOUDY    46  46 100 N6        30.04R FOG
DES MOINES     DRIZZLE   49  45  86 NW10      30.07S
KIRKSVILLE     CLOUDY    52  45  77 NW6       30.05R
OTTUMWA        CLOUDY    50  49  96 W6        30.03S FOG
ST LOUIS       CLEAR     59  49  69 NW3       30.02S
$$


CITY           SKY/WX    TMP DP  RH WIND       PRES   REMARKS
TERRE HAUTE    CLEAR     55  46  71 NW5       30.00S
EVANSVILLE     CLEAR     61  52  72 NW5       30.00R
INDIANAPOLIS   PTCLDY    57  52  83 W7        29.96S
LAFAYETTE      CLOUDY    55  52  89 S3        29.98R
MADISON        CLOUDY    39  38  96 NE6       30.05S WCI  35
MILWAUKEE      DRIZZLE   40  38  93 NE8       30.04S FOG     WCI  34
$$






USA.gov is the U.S. government's official web portal to all federal, state and local government web resources and services.